Weather History for Eagle River, WI

Change the Weather History Date:

Monday, January 21, 2013

  Actual Average Record
Temperature  
Mean Temperature -10 °F -  
Max Temperature -5 °F 21 °F 37 °F (1997)
Min Temperature -14 °F 0 °F -22 °F (2012)
Degree Days  
Heating Degree Days 74    
Moisture  
Dew Point -20 °F    
Average Humidity 64    
Maximum Humidity 77    
Minimum Humidity 49    
Precipitation  
Precipitation 0.00 in - - ()
Sea Level Pressure  
Sea Level Pressure 30.01 in    
Wind  
Wind Speed 10 mph (WNW)    
Max Wind Speed 16 mph    
Max Gust Speed 24 mph    
Visibility 9 miles    
Events Snow    
Averages and records for this station are not official NWS values.
T = Trace of Precipitation, MM = Missing Value Source: NWS Daily Summary

Daily Weather History Graph

Daily Weather History Graph

Search for Another Location

Airport:

Trip Planner

Search our weather history database for the weather conditions in past years. The results will help you decide how hot, cold, wet, or windy it might be!

Date:

Astronomy

Jan. 21, 2013 Rise Set
Actual Time 7:30 AM CST 4:47 PM CST
Civil Twilight 6:57 AM CST 5:20 PM CST
Nautical Twilight 6:20 AM CST 5:56 PM CST
Astronomical Twilight 5:45 AM CST 6:32 PM CST
Moon 12:25 PM CST (1/21) 2:59 AM CST (1/21)
Length of Visible Light 10h 22m
Length of Day
9h 16m
Waxing Gibbous, 75% of the Moon is Illuminated
Jan 21
Waxing Gibbous
Jan 26
Full
Feb 3
Last Quarter
Feb 10
New
Feb 17
First Quarter

Hourly Weather History & Observations

Time (CST) Temp. Windchill Dew Point Humidity Pressure Visibility Wind Dir Wind Speed Gust Speed Precip Events Conditions
12:15 AM -5.8 °F -18.4 °F -11.2 °F 77% 30.00 in 10.0 mi West 5.8 mph - N/A   Overcast
12:35 AM -5.8 °F -19.9 °F -11.2 °F 77% 30.00 in 10.0 mi West 6.9 mph - N/A   Overcast
12:55 AM -5.8 °F -22.4 °F -13.0 °F 71% 29.99 in 10.0 mi West 9.2 mph - N/A   Overcast
1:15 AM -5.8 °F -21.2 °F -11.2 °F 77% 29.99 in 10.0 mi West 8.1 mph - N/A   Overcast
1:35 AM -5.8 °F -18.4 °F -11.2 °F 77% 29.98 in 10.0 mi West 5.8 mph - N/A   Overcast
1:55 AM -5.8 °F -19.9 °F -11.2 °F 77% 29.98 in 10.0 mi West 6.9 mph - N/A   Overcast
2:15 AM -5.8 °F -21.2 °F -13.0 °F 71% 29.98 in 7.0 mi West 8.1 mph - N/A   Overcast
2:35 AM -5.8 °F -19.9 °F -13.0 °F 71% 29.98 in 4.0 mi WNW 6.9 mph - N/A Snow Light Snow
2:55 AM -5.8 °F -19.9 °F -13.0 °F 71% 29.97 in 5.0 mi West 6.9 mph - N/A   Haze
3:15 AM -5.8 °F -21.2 °F -13.0 °F 71% 29.97 in 5.0 mi West 8.1 mph 17.3 mph N/A   Haze
3:35 AM -7.6 °F -26.6 °F -13.0 °F 77% 29.97 in 10.0 mi WNW 11.5 mph - N/A   Scattered Clouds
3:55 AM -7.6 °F -27.5 °F -14.8 °F 71% 29.96 in 10.0 mi WNW 12.7 mph - N/A   Scattered Clouds
4:15 AM -7.6 °F -28.3 °F -14.8 °F 71% 29.97 in 7.0 mi West 13.8 mph 19.6 mph N/A   Mostly Cloudy
4:35 AM -7.6 °F -27.5 °F -14.8 °F 71% 29.96 in 10.0 mi West 12.7 mph 20.7 mph N/A   Mostly Cloudy
4:55 AM -9.4 °F -30.6 °F -14.8 °F 77% 29.96 in 7.0 mi West 13.8 mph 17.3 mph N/A   Mostly Cloudy
5:15 AM -9.4 °F -28.9 °F -16.6 °F 71% 29.97 in 5.0 mi WNW 11.5 mph 17.3 mph N/A   Haze
5:35 AM -9.4 °F -27.9 °F -16.6 °F 71% 29.97 in 10.0 mi WNW 10.4 mph 18.4 mph N/A   Scattered Clouds
5:55 AM -11.2 °F -29.0 °F -18.4 °F 70% 29.97 in 10.0 mi WNW 9.2 mph - N/A   Scattered Clouds
6:15 AM -13.0 °F -33.4 °F -18.4 °F 77% 29.97 in 10.0 mi West 11.5 mph 17.3 mph N/A   Clear
6:35 AM -13.0 °F -32.4 °F -18.4 °F 77% 29.97 in 10.0 mi West 10.4 mph - N/A   Scattered Clouds
6:55 AM -13.0 °F -33.4 °F -18.4 °F 77% 29.97 in 10.0 mi West 11.5 mph - N/A   Scattered Clouds
7:15 AM -13.0 °F -33.4 °F -20.2 °F 70% 29.97 in 10.0 mi WNW 11.5 mph - N/A   Scattered Clouds
7:35 AM -13.0 °F -30.0 °F -22.0 °F 64% 29.98 in 10.0 mi West 8.1 mph 18.4 mph N/A   Scattered Clouds
7:55 AM -14.8 °F -35.6 °F -22.0 °F 70% 29.98 in 10.0 mi WNW 11.5 mph 18.4 mph N/A   Clear
8:15 AM -13.0 °F -34.3 °F -22.0 °F 64% 29.99 in 10.0 mi WNW 12.7 mph 18.4 mph N/A   Clear
8:35 AM -13.0 °F -35.2 °F -22.0 °F 64% 29.99 in 7.0 mi WNW 13.8 mph 19.6 mph N/A   Clear
8:55 AM -13.0 °F -36.8 °F -22.0 °F 64% 30.00 in 10.0 mi WNW 16.1 mph 21.9 mph N/A   Scattered Clouds
9:15 AM -13.0 °F -34.3 °F -22.0 °F 64% 30.01 in 10.0 mi WNW 12.7 mph 19.6 mph N/A   Mostly Cloudy
9:35 AM -13.0 °F -32.4 °F -22.0 °F 64% 30.01 in 7.0 mi WNW 10.4 mph 21.9 mph N/A   Overcast
9:55 AM -13.0 °F -32.4 °F -22.0 °F 64% 30.02 in 5.0 mi WNW 10.4 mph 24.2 mph N/A   Haze
10:15 AM -13.0 °F -31.3 °F -22.0 °F 64% 30.02 in 5.0 mi WNW 9.2 mph - N/A   Haze
10:35 AM -11.2 °F -34.4 °F -22.0 °F 59% 30.03 in 7.0 mi WNW 16.1 mph 19.6 mph N/A   Overcast
10:55 AM -11.2 °F -32.1 °F -22.0 °F 59% 30.02 in 7.0 mi WNW 12.7 mph 19.6 mph N/A   Overcast
11:15 AM -9.4 °F -29.8 °F -22.0 °F 54% 30.02 in 5.0 mi WNW 12.7 mph 18.4 mph N/A   Haze
11:55 AM -9.4 °F -30.6 °F -22.0 °F 54% 30.01 in 10.0 mi West 13.8 mph - N/A   Overcast
12:15 PM -11.2 °F -32.9 °F -23.8 °F 54% 30.01 in 5.0 mi NW 13.8 mph 21.9 mph N/A   Haze
12:35 PM -11.2 °F -34.4 °F -23.8 °F 54% 30.01 in 7.0 mi West 16.1 mph 20.7 mph N/A   Overcast
12:55 PM -11.2 °F -33.7 °F -23.8 °F 54% 30.01 in 5.0 mi WNW 15.0 mph 20.7 mph N/A   Haze
1:15 PM -11.2 °F -32.1 °F -23.8 °F 54% 30.00 in 5.0 mi West 12.7 mph 20.7 mph N/A   Haze
1:35 PM -11.2 °F -31.1 °F -23.8 °F 54% 30.00 in 10.0 mi West 11.5 mph - N/A   Overcast
1:55 PM -11.2 °F -31.1 °F -23.8 °F 54% 30.00 in 7.0 mi WNW 11.5 mph 21.9 mph N/A   Overcast
2:15 PM -11.2 °F -32.9 °F -25.6 °F 49% 30.00 in 10.0 mi NW 13.8 mph 19.6 mph N/A   Overcast
2:35 PM -11.2 °F -29.0 °F -23.8 °F 54% 30.01 in 7.0 mi West 9.2 mph 19.6 mph N/A   Overcast
2:55 PM -11.2 °F -32.1 °F -25.6 °F 49% 30.01 in 10.0 mi NW 12.7 mph 19.6 mph N/A   Overcast
3:15 PM -11.2 °F -32.9 °F -25.6 °F 49% 30.02 in 10.0 mi WNW 13.8 mph 21.9 mph N/A   Overcast
3:35 PM -11.2 °F -31.1 °F -23.8 °F 54% 30.03 in 10.0 mi NW 11.5 mph - N/A   Overcast
3:55 PM -11.2 °F -32.9 °F -25.6 °F 49% 30.03 in 10.0 mi WNW 13.8 mph 17.3 mph N/A   Overcast
4:15 PM -13.0 °F -34.3 °F -27.4 °F 49% 30.03 in 10.0 mi WNW 12.7 mph 18.4 mph N/A   Overcast
4:35 PM -13.0 °F -27.0 °F -23.8 °F 59% 30.03 in 10.0 mi West 5.8 mph - N/A   Overcast
4:55 PM -13.0 °F -30.0 °F -23.8 °F 59% 30.03 in 10.0 mi West 8.1 mph - N/A   Overcast
5:15 PM -13.0 °F -31.3 °F -23.8 °F 59% 30.03 in 10.0 mi West 9.2 mph - N/A   Overcast
5:35 PM -13.0 °F -31.3 °F -23.8 °F 59% 30.03 in 10.0 mi West 9.2 mph - N/A   Overcast
5:55 PM -13.0 °F -30.0 °F -23.8 °F 59% 30.04 in 10.0 mi West 8.1 mph - N/A   Overcast
6:15 PM -13.0 °F -30.0 °F -23.8 °F 59% 30.03 in 10.0 mi West 8.1 mph 16.1 mph N/A   Overcast
6:35 PM -13.0 °F -31.3 °F -23.8 °F 59% 30.04 in 10.0 mi West 9.2 mph - N/A   Overcast
6:55 PM -13.0 °F -31.3 °F -23.8 °F 59% 30.04 in 10.0 mi West 9.2 mph 16.1 mph N/A   Overcast
7:15 PM -13.0 °F -31.3 °F -23.8 °F 59% 30.04 in 10.0 mi West 9.2 mph - N/A   Overcast
7:35 PM -13.0 °F -31.3 °F -23.8 °F 59% 30.04 in 10.0 mi West 9.2 mph 17.3 mph N/A   Overcast
7:55 PM -13.0 °F -32.4 °F -22.0 °F 64% 30.04 in 10.0 mi West 10.4 mph - N/A   Overcast
8:15 PM -13.0 °F -34.3 °F -22.0 °F 64% 30.04 in 10.0 mi West 12.7 mph 16.1 mph N/A   Overcast
8:35 PM -13.0 °F -32.4 °F -22.0 °F 64% 30.04 in 10.0 mi West 10.4 mph 17.3 mph N/A   Overcast
8:55 PM -13.0 °F -32.4 °F -22.0 °F 64% 30.04 in 10.0 mi West 10.4 mph - N/A   Overcast
9:15 PM -13.0 °F -32.4 °F -22.0 °F 64% 30.04 in 10.0 mi West 10.4 mph 17.3 mph N/A   Overcast
9:35 PM -13.0 °F -32.4 °F -22.0 °F 64% 30.05 in 10.0 mi West 10.4 mph - N/A   Overcast
9:55 PM -13.0 °F -31.3 °F -22.0 °F 64% 30.05 in 10.0 mi West 9.2 mph 17.3 mph N/A   Overcast
10:15 PM -13.0 °F -30.0 °F -22.0 °F 64% 30.05 in 10.0 mi West 8.1 mph - N/A   Overcast
10:35 PM -13.0 °F -33.4 °F -22.0 °F 64% 30.05 in 10.0 mi West 11.5 mph 16.1 mph N/A   Overcast
10:55 PM -13.0 °F -30.0 °F -22.0 °F 64% 30.05 in 10.0 mi West 8.1 mph - N/A   Overcast
11:15 PM -13.0 °F -30.0 °F -22.0 °F 64% 30.05 in 10.0 mi West 8.1 mph - N/A   Overcast
11:35 PM -13.0 °F -31.3 °F -22.0 °F 64% 30.05 in 10.0 mi West 9.2 mph - N/A   Overcast
11:55 PM -14.8 °F -33.5 °F -22.0 °F 70% 30.04 in 10.0 mi West 9.2 mph - N/A   Overcast